Probability
9 6 4 4 2 1 0 0 0 0 0 0 0 0 0 0 0 0 0 0 0 0 0 0 0 0 0 1 2 3 3 3 3 3 2 1 1 0 0 1 2 3 2 2 1 0 1 1 0
7 6 5 4 2 0 0 0 0 0 0 0 0 0 0 0 0 0 0 0 0 0 0 0 0 0 0 1 2 3 3 3 3 2 1 1 1 1 1 1 2 2 2 1 0 1 2 1 1
7 6 5 4 1 0 0 0 0 0 0 0 0 0 0 0 0 0 0 0 0 0 1 1 0 0 0 1 1 1 1 2 1 1 1 1 2 2 2 2 3 3 2 0 1 2 2 1 0
7 7 6 3 1 0 0 0 0 0 0 0 0 0 0 0 0 0 0 0 0 1 2 2 1 0 0 1 1 0 0 0 0 2 3 3 3 3 3 3 3 3 1 0 1 2 2 1 0
7 7 5 2 0 0 0 0 0 0 0 0 0 0 0 0 0 0 0 0 0 1 2 2 1 0 1 1 0 0 0 0 1 3 4 4 3 3 3 3 3 3 1 1 2 3 2 0 0
6 6 3 1 0 0 0 0 0 0 0 0 0 0 0 1 1 0 0 0 0 0 1 1 1 0 1 1 0 0 1 1 3 4 4 3 3 4 3 3 3 3 2 1 2 3 2 1 1
6 5 2 0 0 0 0 0 0 0 0 0 0 0 0 1 1 0 0 0 0 0 0 0 0 0 0 1 1 1 1 3 4 4 4 3 3 4 3 1 1 2 2 2 2 3 3 3 2
6 5 2 0 0 0 0 0 0 0 0 0 0 0 0 0 0 0 0 0 0 0 0 0 0 0 0 1 2 2 2 4 4 4 3 3 3 3 3 1 0 1 2 2 2 3 3 3 3
6 4 1 0 0 0 0 0 0 0 0 0 0 0 0 0 0 0 0 0 0 0 1 1 0 0 0 1 1 2 3 4 3 3 3 3 3 3 2 1 0 0 1 2 2 3 3 3 3
5 3 1 0 0 0 0 0 0 0 0 0 0 0 0 0 0 0 0 0 0 1 2 3 2 1 1 1 1 1 1 2 2 2 2 2 2 2 1 1 0 0 0 1 1 3 3 3 3
3 2 0 0 0 0 0 0 0 0 0 0 0 0 0 0 0 0 0 0 0 1 3 4 5 4 4 2 1 0 0 0 1 1 1 1 1 1 0 0 0 0 0 0 1 2 3 3 3
1 1 0 0 0 0 0 0 0 0 0 0 0 0 0 0 0 0 0 1 1 2 3 5 6 6 5 3 1 0 0 0 0 0 0 0 0 0 0 1 1 0 0 0 1 2 3 3 3
0 0 0 0 0 0 0 0 0 0 0 0 0 0 0 0 0 0 1 2 3 3 4 5 5 4 4 3 1 1 1 0 0 0 0 1 0 0 0 1 1 0 0 0 1 1 2 3 3
0 0 0 0 0 0 0 0 0 0 0 0 0 0 0 0 1 1 1 2 3 3 5 6 4 2 2 3 3 2 1 0 0 0 1 1 0 0 0 1 1 0 0 1 1 1 1 2 3
0 0 0 0 0 0 0 0 0 0 0 0 0 0 0 1 2 2 1 2 4 5 6 6 3 1 1 3 4 2 1 0 0 0 1 1 0 0 0 0 0 0 0 1 2 2 1 1 1
0 0 0 0 0 0 0 0 0 0 0 0 0 0 0 1 3 3 3 4 6 8 8 7 3 1 2 4 5 3 1 0 0 0 1 1 0 0 0 0 0 0 0 0 1 2 1 0 0
0 0 0 0 0 0 0 0 0 0 0 0 0 1 1 3 5 5 5 6 9 10 9 7 5 3 2 4 5 3 2 1 1 1 1 1 1 1 1 1 0 0 0 0 0 1 1 1 0
0 0 0 0 0 0 0 0 0 0 0 0 1 2 3 4 5 5 5 6 9 10 9 8 6 4 3 3 3 3 3 3 2 3 4 4 4 3 3 2 1 1 2 1 0 1 2 1 1
0 0 0 0 0 0 0 0 0 0 1 1 2 3 3 3 3 3 3 5 7 9 9 9 7 5 4 3 3 3 3 3 3 3 4 5 5 5 4 4 3 3 3 2 1 1 2 2 2
0 0 0 0 0 0 0 0 0 0 1 2 2 3 3 2 2 2 3 5 6 8 9 9 8 6 4 3 2 2 2 2 1 1 2 3 4 5 5 5 4 3 3 3 2 1 1 1 1
0 0 0 0 0 0 0 1 0 0 1 1 1 3 3 3 3 4 6 7 8 9 10 10 10 9 6 4 3 2 1 1 0 0 0 1 1 2 5 5 4 3 3 3 2 1 0 0 0
0 0 0 0 0 0 0 0 0 0 0 0 1 2 3 3 4 5 8 10 11 12 12 12 12 11 9 6 4 2 1 0 0 0 0 0 0 1 4 5 4 3 3 3 2 1 1 0 0
0 0 0 0 0 1 0 0 0 0 0 0 1 2 3 3 4 5 8 11 12 13 13 13 13 13 13 10 7 4 2 1 1 1 1 0 0 2 4 6 5 4 4 5 5 5 4 3 2
0 0 0 0 0 0 0 0 0 0 0 0 0 1 2 3 4 5 8 11 13 13 12 13 14 15 15 13 10 7 5 4 3 3 2 1 1 3 5 7 7 5 4 6 8 9 9 8 7
0 0 0 0 0 0 0 0 0 0 0 1 1 0 1 2 4 6 8 11 15 16 15 14 15 16 16 15 13 11 9 8 6 4 3 2 2 3 5 7 7 6 5 8 9 10 10 11 11
0 0 0 0 0 0 0 0 0 0 0 1 1 0 0 2 4 6 7 11 16 19 18 18 18 18 17 15 15 14 12 10 8 6 4 3 3 5 7 9 9 8 8 9 10 10 10 11 11
0 0 0 0 0 0 0 0 0 0 0 1 1 1 1 2 4 4 5 8 13 17 19 20 21 20 18 16 15 16 15 13 11 8 7 7 7 9 11 13 13 11 10 11 11 10 9 10 11
0 0 0 0 0 0 0 0 1 1 1 2 4 4 4 4 4 4 5 7 9 13 17 19 20 20 19 17 17 17 17 17 14 12 11 11 12 14 15 16 15 13 12 12 11 10 9 10 10
0 0 0 0 0 0 0 0 1 2 3 4 6 8 7 6 6 5 7 8 9 10 13 16 18 18 18 17 17 18 18 18 18 16 15 15 15 15 16 16 15 14 14 13 13 11 10 10 12
0 0 0 0 0 0 0 1 2 3 4 5 7 10 9 8 7 7 9 10 10 10 12 16 17 17 16 16 17 16 16 18 19 18 17 16 14 15 15 15 14 14 14 14 14 12 9 11 12
Wind_Speed
11 9 6 5 3 6 11 9 8 7 6 7 7 6 9 10 8 8 5 5 5 6 7 8 9 9 10 11 11 11 11 11 11 11 12 12 13 13 13 12 12 13 13 13 14 14 15 14 15
8 6 6 4 2 8 11 9 10 9 8 7 7 8 9 10 9 7 5 5 5 7 7 9 10 9 10 11 11 11 11 11 11 11 12 12 13 13 13 13 13 13 13 13 13 13 14 14 14
6 6 4 2 8 10 11 9 9 9 6 5 6 7 8 8 7 6 6 5 6 7 8 10 9 9 10 11 11 11 11 11 11 12 12 13 13 13 13 13 13 13 13 12 12 12 13 13 13
5 6 2 5 12 12 10 9 8 8 7 6 6 8 9 7 6 7 7 6 7 8 8 11 8 9 10 10 11 11 11 11 11 11 12 12 12 12 13 13 13 12 12 12 11 11 12 12 12
5 3 4 9 13 10 9 8 6 7 6 6 7 10 10 8 9 9 8 7 7 8 8 10 9 9 10 10 10 11 11 11 11 11 11 11 11 11 12 12 12 12 12 11 11 11 11 11 11
4 1 5 10 12 9 8 6 6 8 8 7 8 10 9 8 9 8 8 7 7 7 7 9 9 8 9 10 10 10 10 10 11 11 10 11 11 11 11 11 11 11 11 11 11 10 10 10 9
2 3 8 10 10 10 7 5 5 7 7 7 5 9 9 8 8 8 7 7 7 6 7 6 7 8 9 9 10 10 10 10 10 10 11 11 11 10 10 10 10 11 10 10 10 10 9 8 8
3 1 9 9 9 10 7 6 5 6 8 7 3 6 9 9 9 9 7 7 6 6 6 6 6 6 6 9 10 9 9 10 10 10 10 10 10 10 9 9 10 9 9 9 9 9 8 7 7
4 2 9 9 8 9 7 7 6 5 8 6 5 7 11 11 10 9 8 7 6 6 5 5 6 5 6 7 9 8 8 8 7 8 8 5 5 7 6 11 10 9 8 8 8 7 7 6 7
1 6 11 8 7 8 7 6 7 6 8 8 9 11 13 11 9 8 7 7 7 6 6 5 5 5 6 5 5 4 5 6 5 5 5 4 5 4 6 10 8 8 7 7 7 6 5 5 4
4 8 8 7 7 6 7 7 5 6 6 7 10 13 13 11 9 8 7 6 6 6 6 6 5 4 4 4 4 3 3 3 5 5 4 4 3 3 3 3 5 5 5 4 6 5 2 1 2
6 7 6 7 6 6 7 6 6 6 7 7 10 12 11 10 9 8 7 6 6 5 5 5 5 4 3 3 3 3 3 3 3 4 3 3 3 3 3 2 3 2 2 2 1 1 3 2 1
6 7 7 7 6 6 6 7 7 7 8 9 11 11 11 10 9 8 7 7 6 6 5 6 4 4 3 3 1 3 3 3 4 3 4 3 3 3 3 3 2 2 2 2 1 2 2 2 1
6 7 7 6 6 5 5 7 6 7 9 10 11 10 10 9 8 8 7 7 6 6 6 6 5 4 3 2 2 2 2 2 2 3 4 3 3 3 2 2 2 2 2 2 1 2 1 1 1
6 7 7 5 5 4 5 6 5 8 9 10 10 9 9 9 8 7 7 6 6 6 6 6 5 4 3 2 2 2 2 2 2 3 3 2 3 3 1 2 2 2 2 2 1 1 1 1 1
6 6 5 6 4 4 5 5 7 9 9 10 9 9 8 8 8 7 7 6 6 6 6 5 4 5 4 2 1 1 1 2 2 2 3 2 2 2 1 2 2 2 1 1 1 1 1 2 1
7 4 4 7 5 4 4 3 8 9 9 9 9 9 9 9 8 8 7 7 7 6 6 6 4 4 4 3 2 1 1 1 1 1 1 2 1 1 0 1 2 0 0 1 1 2 1 1 1
3 3 3 4 5 5 4 2 7 9 8 9 9 9 9 9 9 8 8 7 7 7 6 6 5 4 4 3 2 2 2 2 1 1 1 1 1 0 1 1 1 1 0 1 1 1 1 1 1
2 2 2 3 4 4 3 2 5 8 9 9 9 9 9 8 8 8 8 8 8 7 7 6 6 5 4 3 3 3 2 2 1 1 2 1 0 0 1 1 1 1 0 0 0 1 0 0 1
6 5 4 4 4 3 2 2 3 7 9 8 9 9 9 10 9 9 9 9 8 8 7 7 7 6 6 3 2 1 1 1 1 1 1 1 1 2 2 1 2 1 1 1 1 1 2 1 1
7 6 4 3 5 6 5 4 5 6 7 8 8 8 9 10 10 11 10 10 9 9 8 7 7 6 6 5 4 3 2 2 2 2 2 1 2 2 2 2 2 1 2 1 2 2 2 2 1
7 4 4 5 6 4 5 3 5 6 7 8 9 9 10 9 10 11 11 11 10 9 8 8 7 7 6 6 5 5 3 3 2 2 1 1 2 2 2 2 2 2 2 1 3 1 2 3 2
4 3 5 6 7 6 5 5 3 6 5 7 9 10 9 10 10 11 12 11 10 10 9 8 8 7 7 6 6 5 5 3 2 2 2 2 2 2 2 2 2 2 2 2 3 2 3 3 3
5 6 6 8 8 7 5 6 2 4 4 4 7 9 9 10 10 10 11 10 10 9 9 9 8 8 7 7 7 6 5 4 3 3 2 2 2 2 2 3 2 3 2 2 3 3 4 4 3
10 9 7 8 7 5 4 6 2 1 2 3 5 7 9 9 10 10 10 11 10 11 10 9 9 9 8 8 7 7 6 6 5 4 3 3 2 2 2 2 2 2 2 3 3 3 3 3 3
11 11 8 7 6 4 7 5 1 1 2 3 5 6 7 9 10 10 11 11 10 11 10 10 9 9 9 8 7 7 7 5 4 5 4 3 3 2 1 2 2 2 3 3 2 3 3 2 3
9 10 8 9 9 8 5 4 5 4 5 6 6 7 7 8 9 10 11 11 11 10 10 10 10 9 9 8 8 7 7 6 5 5 5 4 3 2 2 2 2 2 2 2 3 2 2 2 3
8 7 8 9 8 9 7 7 4 6 7 7 7 6 7 7 8 9 9 10 10 10 10 10 9 9 9 8 7 6 7 7 6 5 5 3 3 2 3 3 3 3 3 3 3 3 2 2 2
9 10 8 8 9 10 7 3 1 5 5 6 6 6 6 7 7 8 8 9 9 9 9 9 9 9 8 7 7 6 6 6 6 6 5 5 4 4 3 3 3 3 3 3 3 3 2 3 3
7 8 10 9 8 9 9 3 3 3 4 4 4 4 5 5 6 7 7 8 8 9 9 8 8 8 7 6 6 6 5 5 6 6 5 5 5 4 4 3 3 3 3 3 3 3 2 3 3
Wind_Direction
178 188 214 234 214 82 70 67 66 76 68 59 57 53 58 44 35 66 69 60 65 67 73 83 71 71 76 83 84 81 83 86 84 86 92 93 94 96 97 97 101 104 110 112 113 115 117 119 121
176 191 228 241 54 78 70 65 67 67 80 86 74 67 70 64 58 84 85 70 72 68 73 72 74 74 80 84 84 83 85 87 86 88 93 93 92 94 96 97 100 100 103 107 113 117 115 115 116
186 226 262 56 57 59 73 73 78 82 83 80 81 62 54 63 72 82 87 94 83 75 75 80 74 76 80 84 83 83 89 91 91 91 91 91 90 92 94 96 98 100 100 104 113 116 116 115 115
213 218 217 72 69 63 72 86 96 98 88 80 90 84 74 64 76 94 104 99 90 82 78 82 75 78 80 86 87 84 85 87 94 96 94 94 93 92 91 93 95 98 100 101 108 112 113 113 115
239 243 101 79 72 73 76 84 94 89 84 89 89 92 86 81 95 107 108 104 88 81 81 87 84 80 80 84 88 84 83 84 89 95 96 96 95 95 94 94 94 96 97 98 105 110 111 112 115
232 212 74 75 79 81 82 87 89 88 97 101 103 100 90 107 113 111 104 96 88 85 84 96 100 89 84 83 83 84 87 87 90 93 93 94 96 97 97 96 96 96 97 101 102 105 111 115 119
323 54 69 76 86 87 83 78 77 88 95 93 98 98 105 120 121 118 112 105 95 86 84 89 102 110 104 92 84 82 84 87 89 90 90 90 93 97 97 98 98 99 100 103 106 107 109 113 116
307 87 80 75 78 83 94 92 81 84 90 96 101 102 119 130 133 127 117 106 100 95 93 95 88 98 109 108 95 87 84 83 86 88 87 92 101 106 106 108 101 102 102 106 111 110 108 110 116
257 81 72 66 71 92 111 111 98 94 110 106 89 88 113 130 136 131 125 119 112 103 97 98 96 102 99 94 99 104 100 89 97 99 99 108 98 98 113 88 94 99 102 107 113 114 118 130 139
257 66 67 60 66 94 110 105 110 124 116 112 112 111 123 135 137 134 127 120 112 109 105 98 89 92 95 90 93 89 88 88 83 82 87 86 79 75 80 99 100 101 106 115 116 127 159 197 154
70 69 74 76 77 94 106 102 112 117 109 116 128 133 138 141 139 136 127 121 116 122 116 109 101 76 81 91 88 76 76 83 91 86 86 84 85 92 93 105 120 123 136 130 133 167 158 125 92
94 77 74 83 90 98 101 109 106 88 80 106 128 137 143 145 142 139 135 130 124 122 113 106 107 105 84 73 83 87 85 86 83 86 73 81 75 67 71 68 73 87 97 90 103 108 96 91 107
106 95 90 98 107 101 108 102 98 99 98 114 129 141 147 146 142 142 142 139 134 133 127 117 112 103 104 95 80 80 73 74 86 80 73 62 74 67 68 60 54 62 78 106 85 79 88 99 121
103 111 112 115 113 126 119 106 111 111 123 130 140 149 154 149 148 147 149 149 148 145 135 128 130 122 118 117 97 85 86 86 80 80 75 62 67 64 63 78 55 54 56 55 56 83 105 103 92
139 137 131 127 134 145 155 123 116 131 141 143 150 153 156 158 159 159 154 157 152 146 140 142 141 135 133 124 114 102 100 93 87 84 85 70 70 68 53 69 67 54 60 82 92 72 89 125 131
183 182 144 133 156 164 229 106 125 148 157 155 158 158 164 165 170 167 161 162 157 153 151 155 154 143 144 135 114 96 84 87 88 95 92 72 55 60 24 55 54 48 64 83 92 62 47 55 32
195 185 140 134 165 170 218 109 130 158 167 162 164 166 172 171 177 173 172 170 165 162 161 163 164 160 160 154 160 151 122 102 95 96 84 83 74 56 350 49 49 336 40 60 24 68 20 39 15
182 182 164 140 150 184 200 147 141 165 177 171 170 171 175 180 181 178 180 176 171 170 170 174 174 174 176 172 171 176 168 175 160 136 95 61 99 66 305 152 119 262 164 59 39 40 30 341 327
260 230 172 129 144 196 198 197 163 170 184 183 179 179 180 185 180 178 180 180 177 178 178 185 187 178 187 189 194 182 176 177 166 165 136 180 231 202 255 297 147 253 180 292 275 297 204 254 303
231 231 196 153 159 221 206 199 170 182 194 195 190 189 185 182 178 177 182 184 186 185 188 190 193 189 195 189 201 200 187 191 174 165 145 218 232 247 222 230 251 221 207 214 244 261 294 296 263
227 238 225 181 173 201 228 192 177 178 195 197 198 197 194 187 184 181 186 190 190 190 193 195 196 192 199 192 198 190 186 208 181 187 185 209 238 247 272 245 265 265 252 214 250 254 273 294 283
224 224 228 202 221 202 242 238 160 172 185 197 198 198 197 190 190 187 186 190 193 192 190 193 194 197 198 198 207 210 209 207 198 221 191 215 240 257 245 245 249 267 282 264 252 236 269 271 284
230 197 211 221 242 246 224 261 163 168 193 194 195 196 196 193 191 188 188 189 193 192 190 188 190 194 195 200 201 212 219 211 202 213 195 239 229 237 234 231 233 244 259 275 291 274 268 267 277
168 175 200 228 244 243 243 259 212 179 208 196 185 192 193 190 189 189 188 187 192 191 191 189 186 190 193 198 204 213 221 225 226 230 224 229 214 214 212 229 233 242 259 254 265 270 259 269 282
206 216 219 221 224 234 218 247 252 167 193 207 189 184 188 189 188 188 189 187 191 191 191 191 187 191 195 198 203 209 215 219 222 233 223 242 235 216 202 240 238 249 250 258 268 259 277 267 267
217 238 254 264 260 231 201 231 197 179 187 196 190 182 182 187 189 190 190 189 190 190 190 190 189 194 197 200 204 210 214 220 222 221 244 237 255 256 224 236 238 246 249 250 249 263 258 261 265
219 235 260 265 267 265 225 211 198 197 196 194 187 178 180 184 188 190 190 189 190 189 188 190 189 193 197 200 203 206 211 222 229 222 228 239 241 240 216 230 232 238 242 254 258 269 286 280 268
256 240 232 247 260 255 236 229 212 199 203 191 189 181 174 182 186 187 188 189 189 189 187 191 189 191 197 200 204 204 208 213 221 228 225 233 235 242 235 229 227 230 234 235 245 250 244 259 269
205 218 241 250 260 265 255 230 170 194 195 194 184 178 174 182 184 184 185 185 185 187 186 187 191 190 194 202 204 211 206 208 212 217 218 216 220 220 222 224 225 226 231 237 243 259 250 253 265
236 235 229 239 240 257 269 249 120 154 175 188 180 174 176 186 184 181 180 179 182 186 189 187 191 191 193 195 199 203 205 205 208 209 213 215 214 213 210 215 221 227 227 229 240 254 256 255 262